Time,TemperatureF,DewpointF,PressureIn,WindDirection,WindDirectionDegrees,WindSpeedMPH,WindSpeedGustMPH,Humidity,HourlyPrecipIn,Conditions,Clouds,dailyrainin,SoftwareType,DateUTC
2013-02-11 00:02:00,46.0,32.0,-100.00,WSW,254,1.0,6.0,58,0.00,,,-99.99,,2013-02-11 05:02:00,
2013-02-11 00:12:00,47.0,32.0,-100.00,North,1,0.0,6.0,60,0.00,,,-99.99,,2013-02-11 05:12:00,
2013-02-11 00:22:00,47.0,34.0,-100.00,ENE,57,0.0,6.0,62,0.00,,,-99.99,,2013-02-11 05:22:00,
2013-02-11 00:32:00,47.0,36.0,-100.00,SE,144,1.0,6.0,66,0.00,,,-99.99,,2013-02-11 05:32:00,
2013-02-11 00:42:00,44.0,32.0,-100.00,ESE,121,1.0,6.0,66,0.00,,,-99.99,,2013-02-11 05:42:00,
2013-02-11 00:52:00,44.0,34.0,-100.00,SSW,192,0.0,6.0,69,0.00,,,-99.99,,2013-02-11 05:52:00,
2013-02-11 01:02:00,45.0,36.0,-100.00,North,357,1.0,6.0,72,0.00,,,-99.99,,2013-02-11 06:02:00,
2013-02-11 01:12:00,46.0,37.0,-100.00,North,360,1.0,6.0,75,0.00,,,-99.99,,2013-02-11 06:12:00,
2013-02-11 01:22:00,45.0,37.0,-100.00,NNW,345,1.0,6.0,76,0.00,,,-99.99,,2013-02-11 06:22:00,
2013-02-11 01:32:00,45.0,37.0,-100.00,NW,310,1.0,6.0,76,0.00,,,-99.99,,2013-02-11 06:32:00,
2013-02-11 01:42:00,45.0,37.0,-100.00,WNW,295,2.0,6.0,76,0.00,,,-99.99,,2013-02-11 06:42:00,
2013-02-11 01:52:00,46.0,37.0,-100.00,North,357,1.0,6.0,76,0.00,,,-99.99,,2013-02-11 06:52:00,
2013-02-11 02:02:00,45.0,37.0,-100.00,SW,224,1.0,6.0,76,0.00,,,-99.99,,2013-02-11 07:02:00,
2013-02-11 02:12:00,45.0,37.0,-100.00,ENE,63,0.0,6.0,76,0.00,,,-99.99,,2013-02-11 07:12:00,
2013-02-11 02:22:00,44.0,37.0,-100.00,NW,314,1.0,6.0,80,0.00,,,-99.99,,2013-02-11 07:22:00,
2013-02-11 02:32:00,44.0,37.0,-100.00,ESE,108,1.0,6.0,82,0.00,,,-99.99,,2013-02-11 07:32:00,
2013-02-11 02:42:00,43.0,37.0,-100.00,WNW,302,1.0,6.0,84,0.00,,,-99.99,,2013-02-11 07:42:00,
2013-02-11 02:52:00,43.0,37.0,-100.00,WNW,286,1.0,6.0,85,0.00,,,-99.99,,2013-02-11 07:52:00,
2013-02-11 03:01:00,43.0,37.0,-100.00,West,265,1.0,6.0,86,0.00,,,-99.99,,2013-02-11 08:01:00,
2013-02-11 03:11:00,44.0,39.0,-100.00,SW,235,0.0,6.0,88,0.00,,,-99.99,,2013-02-11 08:11:00,
2013-02-11 03:22:00,44.0,39.0,-100.00,NNW,337,1.0,6.0,88,0.00,,,-99.99,,2013-02-11 08:22:00,
2013-02-11 03:32:00,43.0,39.0,-100.00,NW,317,1.0,6.0,89,0.00,,,-99.99,,2013-02-11 08:32:00,
2013-02-11 03:42:00,44.0,39.0,-100.00,SSW,196,0.0,6.0,89,0.55,,,-99.99,,2013-02-11 08:42:00,
2013-02-11 03:52:00,43.0,39.0,-100.00,WSW,256,0.0,6.0,90,0.00,,,-99.99,,2013-02-11 08:52:00,
2013-02-11 04:02:00,44.0,39.0,-100.00,WSW,247,0.0,6.0,90,0.00,,,-99.99,,2013-02-11 09:02:00,
2013-02-11 04:12:00,42.0,39.0,-100.00,WSW,240,0.0,6.0,91,0.00,,,-99.99,,2013-02-11 09:12:00,
2013-02-11 04:22:00,41.0,37.0,-100.00,West,278,0.0,6.0,91,0.00,,,-99.99,,2013-02-11 09:22:00,
2013-02-11 04:32:00,42.0,39.0,-100.00,NE,50,0.0,6.0,93,0.00,,,-99.99,,2013-02-11 09:32:00,
2013-02-11 04:42:00,42.0,39.0,-100.00,NE,48,0.0,6.0,93,0.00,,,-99.99,,2013-02-11 09:42:00,
2013-02-11 04:52:00,42.0,39.0,-100.00,West,265,0.0,6.0,93,0.00,,,-99.99,,2013-02-11 09:52:00,
2013-02-11 05:01:00,42.0,39.0,-100.00,SE,129,0.0,6.0,94,0.00,,,-99.99,,2013-02-11 10:01:00,
2013-02-11 05:11:00,42.0,39.0,-100.00,South,189,0.0,6.0,94,0.00,,,-99.99,,2013-02-11 10:11:00,
2013-02-11 05:21:00,43.0,41.0,-100.00,SSE,155,1.0,6.0,94,0.00,,,-99.99,,2013-02-11 10:21:00,
2013-02-11 05:32:00,45.0,43.0,-100.00,NNE,32,0.0,6.0,94,0.00,,,-99.99,,2013-02-11 10:32:00,
2013-02-11 05:42:00,44.0,41.0,-100.00,SSE,155,0.0,6.0,94,0.00,,,-99.99,,2013-02-11 10:42:00,
2013-02-11 05:52:00,45.0,43.0,-100.00,SW,234,2.0,6.0,94,0.00,,,-99.99,,2013-02-11 10:52:00,
2013-02-11 06:02:00,44.0,41.0,-100.00,South,176,2.0,6.0,94,0.00,,,-99.99,,2013-02-11 11:02:00,
2013-02-11 06:11:00,44.0,41.0,-100.00,SSE,156,1.0,1.0,93,0.00,,,-99.99,,2013-02-11 11:11:00,
2013-02-11 06:22:00,44.0,41.0,-100.00,WSW,240,2.0,2.0,94,0.00,,,-99.99,,2013-02-11 11:22:00,
2013-02-11 06:32:00,44.0,41.0,-100.00,SW,218,2.0,2.0,94,0.00,,,-99.99,,2013-02-11 11:32:00,
2013-02-11 06:42:00,46.0,43.0,-100.00,West,259,1.0,2.0,95,0.00,,,-99.99,,2013-02-11 11:42:00,
2013-02-11 06:52:00,47.0,45.0,-100.00,SW,232,4.0,6.0,93,0.00,,,-99.99,,2013-02-11 11:52:00,
2013-02-11 07:03:00,47.0,45.0,-100.00,West,279,3.0,6.0,94,0.00,,,-99.99,,2013-02-11 12:03:00,
2013-02-11 07:12:00,47.0,45.0,-100.00,WSW,240,3.0,6.0,93,0.00,,,-99.99,,2013-02-11 12:12:00,
2013-02-11 07:22:00,46.0,43.0,-100.00,WNW,290,1.0,6.0,93,0.00,,,-99.99,,2013-02-11 12:22:00,
2013-02-11 07:32:00,46.0,43.0,-100.00,SSW,206,4.0,8.0,91,0.00,,,-99.99,,2013-02-11 12:32:00,
2013-02-11 07:42:00,47.0,45.0,-100.00,NNE,18,4.0,8.0,91,0.00,,,-99.99,,2013-02-11 12:42:00,
2013-02-11 07:52:00,49.0,46.0,-100.00,WSW,248,3.0,8.0,93,0.00,,,-99.99,,2013-02-11 12:52:00,
2013-02-11 08:02:00,48.0,45.0,-100.00,South,173,2.0,8.0,90,0.00,,,-99.99,,2013-02-11 13:02:00,
2013-02-11 08:12:00,47.0,43.0,-100.00,SSE,152,1.0,8.0,90,0.00,,,-99.99,,2013-02-11 13:12:00,
2013-02-11 08:22:00,46.0,43.0,-100.00,WNW,303,0.0,8.0,91,0.00,,,-99.99,,2013-02-11 13:22:00,
2013-02-11 08:33:00,47.0,45.0,-100.00,SSW,197,0.0,8.0,93,0.00,,,-99.99,,2013-02-11 13:33:00,
2013-02-11 08:42:00,45.0,41.0,-100.00,West,266,0.0,8.0,91,0.00,,,-99.99,,2013-02-11 13:42:00,
2013-02-11 08:52:00,47.0,45.0,-100.00,SW,221,0.0,8.0,93,0.00,,,-99.99,,2013-02-11 13:52:00,
2013-02-11 09:02:00,46.0,43.0,-100.00,SW,221,1.0,8.0,91,0.00,,,-99.99,,2013-02-11 14:02:00,
2013-02-11 09:12:00,47.0,43.0,-100.00,West,268,1.0,8.0,91,0.00,,,-99.99,,2013-02-11 14:12:00,
2013-02-11 09:22:00,50.0,46.0,-100.00,West,275,3.0,8.0,91,0.00,,,-99.99,,2013-02-11 14:22:00,
2013-02-11 09:33:00,52.0,48.0,-100.00,West,264,4.0,8.0,91,0.00,,,-99.99,,2013-02-11 14:33:00,
2013-02-11 09:42:00,49.0,45.0,-100.00,WSW,244,6.0,8.0,88,0.00,,,-99.99,,2013-02-11 14:42:00,
2013-02-11 09:52:00,51.0,46.0,-100.00,NW,304,5.0,8.0,89,0.00,,,-99.99,,2013-02-11 14:52:00,
2013-02-11 10:02:00,53.0,48.0,-100.00,SW,221,6.0,10.0,88,0.00,,,-99.99,,2013-02-11 15:02:00,
2013-02-11 10:11:00,51.0,45.0,-100.00,WSW,240,8.0,10.0,82,0.00,,,-99.99,,2013-02-11 15:11:00,
2013-02-11 10:22:00,53.0,45.0,-100.00,SW,231,9.0,15.0,78,0.00,,,-99.99,,2013-02-11 15:22:00,
2013-02-11 10:32:00,52.0,43.0,-100.00,SW,221,11.0,15.0,76,0.00,,,-99.99,,2013-02-11 15:32:00,
2013-02-11 10:42:00,53.0,43.0,-100.00,SW,224,12.0,15.0,73,0.00,,,-99.99,,2013-02-11 15:42:00,
2013-02-11 10:52:00,53.0,43.0,-100.00,SW,231,14.0,15.0,72,0.00,,,-99.99,,2013-02-11 15:52:00,
2013-02-11 11:02:00,52.0,43.0,-100.00,SW,216,13.0,15.0,73,0.00,,,-99.99,,2013-02-11 16:02:00,
2013-02-11 11:12:00,53.0,43.0,-100.00,WSW,241,9.0,15.0,72,0.00,,,-99.99,,2013-02-11 16:12:00,
2013-02-11 11:22:00,54.0,43.0,-100.00,West,262,10.0,15.0,69,0.00,,,-99.99,,2013-02-11 16:22:00,
2013-02-11 11:32:00,53.0,41.0,-100.00,West,262,12.0,15.0,67,0.00,,,-99.99,,2013-02-11 16:32:00,
2013-02-11 11:42:00,55.0,41.0,-100.00,SW,228,16.0,21.0,60,0.00,,,-99.99,,2013-02-11 16:42:00,
2013-02-11 11:52:00,54.0,37.0,-100.00,SSW,197,22.0,32.0,54,0.00,,,-99.99,,2013-02-11 16:52:00,
2013-02-11 12:02:00,55.0,39.0,-100.00,WSW,241,20.0,32.0,56,0.00,,,-99.99,,2013-02-11 17:02:00,
2013-02-11 12:12:00,54.0,37.0,-100.00,WSW,249,17.0,32.0,55,0.00,,,-99.99,,2013-02-11 17:12:00,
2013-02-11 12:22:00,56.0,39.0,-100.00,WSW,237,19.0,32.0,54,0.00,,,-99.99,,2013-02-11 17:22:00,
2013-02-11 12:32:00,55.0,36.0,-100.00,SSE,168,17.0,32.0,50,0.00,,,-99.99,,2013-02-11 17:32:00,
2013-02-11 12:42:00,56.0,36.0,-100.00,SW,223,16.0,32.0,49,0.00,,,-99.99,,2013-02-11 17:42:00,
2013-02-11 12:52:00,55.0,36.0,-100.00,WSW,238,17.0,32.0,50,0.00,,,-99.99,,2013-02-11 17:52:00,
2013-02-11 13:02:00,56.0,36.0,-100.00,SSW,208,19.0,32.0,49,0.00,,,-99.99,,2013-02-11 18:02:00,
2013-02-11 13:11:00,55.0,37.0,-100.00,WSW,237,17.0,32.0,53,0.00,,,-99.99,,2013-02-11 18:11:00,
2013-02-11 13:22:00,53.0,37.0,-100.00,SW,216,17.0,32.0,59,0.00,,,-99.99,,2013-02-11 18:22:00,
2013-02-11 13:32:00,53.0,37.0,-100.00,WSW,241,18.0,32.0,58,0.00,,,-99.99,,2013-02-11 18:32:00,
2013-02-11 13:42:00,55.0,37.0,-100.00,WSW,254,16.0,32.0,56,0.00,,,-99.99,,2013-02-11 18:42:00,
2013-02-11 13:53:00,54.0,36.0,-100.00,WSW,238,20.0,32.0,53,0.00,,,-99.99,,2013-02-11 18:53:00,
2013-02-11 14:02:00,55.0,36.0,-100.00,SSW,210,17.0,32.0,50,0.00,,,-99.99,,2013-02-11 19:02:00,
2013-02-11 14:12:00,53.0,34.0,-100.00,SW,221,16.0,32.0,49,0.00,,,-99.99,,2013-02-11 19:12:00,
2013-02-11 14:22:00,53.0,32.0,-100.00,SW,221,19.0,32.0,46,0.00,,,-99.99,,2013-02-11 19:22:00,
2013-02-11 14:32:00,54.0,32.0,-100.00,WSW,237,17.0,32.0,44,0.00,,,-99.99,,2013-02-11 19:32:00,
2013-02-11 14:42:00,52.0,36.0,-100.00,SW,230,14.0,32.0,55,0.00,,,-99.99,,2013-02-11 19:42:00,
2013-02-11 14:51:00,51.0,34.0,-100.00,SW,234,12.0,32.0,55,0.00,,,-99.99,,2013-02-11 19:51:00,
2013-02-11 15:02:00,50.0,34.0,-100.00,SW,224,14.0,32.0,55,0.00,,,-99.99,,2013-02-11 20:02:00,
2013-02-11 15:11:00,50.0,34.0,-100.00,WSW,247,15.0,32.0,55,0.00,,,-99.99,,2013-02-11 20:11:00,
2013-02-11 15:22:00,51.0,34.0,-100.00,WSW,251,12.0,32.0,55,0.00,,,-99.99,,2013-02-11 20:22:00,
2013-02-11 15:32:00,48.0,34.0,-100.00,SW,232,14.0,32.0,58,0.00,,,-99.99,,2013-02-11 20:32:00,
2013-02-11 15:42:00,48.0,34.0,-100.00,SW,234,15.0,32.0,58,0.00,,,-99.99,,2013-02-11 20:42:00,
2013-02-11 15:52:00,47.0,34.0,-100.00,WSW,242,15.0,32.0,60,0.00,,,-99.99,,2013-02-11 20:52:00,
2013-02-11 16:02:00,49.0,34.0,-100.00,SW,218,12.0,32.0,58,0.00,,,-99.99,,2013-02-11 21:02:00,
2013-02-11 16:12:00,49.0,32.0,-100.00,WSW,238,17.0,32.0,56,0.00,,,-99.99,,2013-02-11 21:12:00,
2013-02-11 16:22:00,47.0,32.0,-100.00,SW,217,17.0,32.0,56,0.00,,,-99.99,,2013-02-11 21:22:00,
2013-02-11 16:32:00,47.0,32.0,-100.00,WSW,241,17.0,32.0,55,0.00,,,-99.99,,2013-02-11 21:32:00,
2013-02-11 16:42:00,45.0,30.0,-100.00,SW,225,17.0,32.0,56,0.00,,,-99.99,,2013-02-11 21:42:00,
2013-02-11 16:52:00,43.0,28.0,-100.00,SW,228,19.0,32.0,55,0.00,,,-99.99,,2013-02-11 21:52:00,
2013-02-11 17:02:00,43.0,28.0,-100.00,WSW,238,17.0,32.0,56,0.00,,,-99.99,,2013-02-11 22:02:00,
2013-02-11 17:12:00,41.0,27.0,-100.00,SW,234,14.0,32.0,55,0.00,,,-99.99,,2013-02-11 22:12:00,
2013-02-11 17:22:00,41.0,27.0,-100.00,SW,231,16.0,32.0,56,0.00,,,-99.99,,2013-02-11 22:22:00,
2013-02-11 17:32:00,40.0,28.0,-100.00,West,264,14.0,32.0,59,0.00,,,-99.99,,2013-02-11 22:32:00,
2013-02-11 17:42:00,40.0,27.0,-100.00,SW,225,12.0,32.0,58,0.00,,,-99.99,,2013-02-11 22:42:00,
2013-02-11 17:52:00,40.0,28.0,-100.00,SW,228,13.0,32.0,59,0.00,,,-99.99,,2013-02-11 22:52:00,
2013-02-11 18:02:00,40.0,28.0,-100.00,SW,230,13.0,32.0,60,0.00,,,-99.99,,2013-02-11 23:02:00,
2013-02-11 18:12:00,40.0,28.0,-100.00,SSW,213,11.0,32.0,60,0.00,,,-99.99,,2013-02-11 23:12:00,
2013-02-11 18:22:00,41.0,28.0,-100.00,SSW,201,10.0,32.0,59,0.00,,,-99.99,,2013-02-11 23:22:00,
2013-02-11 18:32:00,40.0,27.0,-100.00,West,265,11.0,32.0,59,0.00,,,-99.99,,2013-02-11 23:32:00,
2013-02-11 18:42:00,41.0,28.0,-100.00,SSW,200,9.0,32.0,60,0.00,,,-99.99,,2013-02-11 23:42:00,
2013-02-11 18:52:00,41.0,30.0,-100.00,SW,230,9.0,32.0,62,0.00,,,-99.99,,2013-02-11 23:52:00,
2013-02-11 19:02:00,40.0,28.0,-100.00,WSW,254,12.0,32.0,62,0.00,,,-99.99,,2013-02-12 00:02:00,
2013-02-11 19:12:00,38.0,28.0,-100.00,SW,216,11.0,32.0,63,0.00,,,-99.99,,2013-02-12 00:12:00,
2013-02-11 19:22:00,38.0,28.0,-100.00,SW,235,11.0,32.0,64,0.00,,,-99.99,,2013-02-12 00:22:00,
2013-02-11 19:32:00,38.0,28.0,-100.00,SW,216,9.0,32.0,64,0.00,,,-99.99,,2013-02-12 00:32:00,
2013-02-11 19:42:00,38.0,28.0,-100.00,WSW,244,9.0,32.0,66,0.00,,,-99.99,,2013-02-12 00:42:00,
2013-02-11 19:52:00,38.0,28.0,-100.00,SW,234,11.0,32.0,67,0.00,,,-99.99,,2013-02-12 00:52:00,
2013-02-11 20:02:00,39.0,30.0,-100.00,SW,231,9.0,32.0,68,0.00,,,-99.99,,2013-02-12 01:02:00,
2013-02-11 20:12:00,38.0,28.0,-100.00,WSW,255,8.0,32.0,68,0.00,,,-99.99,,2013-02-12 01:12:00,
2013-02-11 20:22:00,39.0,30.0,-100.00,SW,221,9.0,32.0,69,0.00,,,-99.99,,2013-02-12 01:22:00,
2013-02-11 20:32:00,39.0,30.0,-100.00,WSW,237,9.0,32.0,69,0.00,,,-99.99,,2013-02-12 01:32:00,
2013-02-11 20:42:00,38.0,30.0,-100.00,SW,217,12.0,32.0,68,0.00,,,-99.99,,2013-02-12 01:42:00,
2013-02-11 20:52:00,38.0,30.0,-100.00,WSW,238,12.0,32.0,68,0.00,,,-99.99,,2013-02-12 01:52:00,
2013-02-11 21:02:00,39.0,30.0,-100.00,WSW,252,13.0,32.0,67,0.00,,,-99.99,,2013-02-12 02:02:00,
2013-02-11 21:12:00,36.0,28.0,-100.00,SW,216,9.0,32.0,68,0.00,,,-99.99,,2013-02-12 02:12:00,
2013-02-11 21:22:00,37.0,27.0,-100.00,West,264,11.0,32.0,66,0.00,,,-99.99,,2013-02-12 02:22:00,
2013-02-11 21:32:00,37.0,28.0,-100.00,WSW,237,9.0,32.0,67,0.00,,,-99.99,,2013-02-12 02:32:00,
2013-02-11 21:42:00,37.0,27.0,-100.00,SW,221,10.0,32.0,64,0.00,,,-99.99,,2013-02-12 02:42:00,
2013-02-11 21:52:00,37.0,27.0,-100.00,SSW,193,12.0,32.0,63,0.00,,,-99.99,,2013-02-12 02:52:00,
2013-02-11 22:02:00,38.0,28.0,-100.00,SW,231,11.0,32.0,66,0.00,,,-99.99,,2013-02-12 03:02:00,
2013-02-11 22:11:00,37.0,27.0,-100.00,WSW,251,12.0,32.0,62,0.00,,,-99.99,,2013-02-12 03:11:00,
2013-02-11 22:21:00,37.0,27.0,-100.00,WSW,249,10.0,32.0,63,0.00,,,-99.99,,2013-02-12 03:21:00,
2013-02-11 22:32:00,37.0,27.0,-100.00,WSW,255,11.0,32.0,62,0.00,,,-99.99,,2013-02-12 03:32:00,
2013-02-11 22:42:00,37.0,27.0,-100.00,SW,230,11.0,32.0,62,0.00,,,-99.99,,2013-02-12 03:42:00,
2013-02-11 22:51:00,37.0,27.0,-100.00,WSW,242,11.0,32.0,62,0.00,,,-99.99,,2013-02-12 03:51:00,
2013-02-11 23:01:00,36.0,25.0,-100.00,SW,218,12.0,32.0,63,0.00,,,-99.99,,2013-02-12 04:01:00,
2013-02-11 23:11:00,37.0,27.0,-100.00,SW,224,11.0,32.0,64,0.00,,,-99.99,,2013-02-12 04:11:00,
2013-02-11 23:21:00,37.0,27.0,-100.00,SW,234,12.0,32.0,64,0.00,,,-99.99,,2013-02-12 04:21:00,
2013-02-11 23:32:00,37.0,27.0,-100.00,SW,227,12.0,32.0,64,0.00,,,-99.99,,2013-02-12 04:32:00,
2013-02-11 23:42:00,37.0,27.0,-100.00,SW,227,12.0,32.0,63,0.00,,,-99.99,,2013-02-12 04:42:00,
2013-02-11 23:51:00,36.0,25.0,-100.00,SW,218,12.0,32.0,63,0.00,,,-99.99,,2013-02-12 04:51:00,